Change the Weather History Date:

Thursday, October 4, 2012

  Actual Average Record
Temperature  
Mean Temperature 64 °F 61 °F  
Max Temperature 71 °F 77 °F 94 °F (2014)
Min Temperature 56 °F 45 °F 35 °F (2009)
Degree Days  
Heating Degree Days 1    
Month to date heating degree days 1  
Since 1 July heating degree days 136  
Cooling Degree Days 0    
Month to date cooling degree days 22  
Year to date cooling degree days 190  
Growing Degree Days 14 (Base 50)    
Moisture  
Dew Point 53 °F    
Average Humidity 68    
Maximum Humidity 86    
Minimum Humidity 49    
Precipitation  
Precipitation 0.00 in - 0.25 in (2011)
Month to date precipitation 0.00  
Year to date precipitation 13.77  
Since 1 July precipitation T  
Sea Level Pressure  
Sea Level Pressure 30.05 in    
Wind  
Wind Speed 13 mph (WSW)    
Max Wind Speed 22 mph    
Max Gust Speed 25 mph    
Visibility 10 miles    
Events      
T = Trace of Precipitation, MM = Missing Value Source: NWS Daily Summary

Daily Weather History Graph

Daily Weather History Graph

Search for Another Location

Airport or City:

Trip Planner

Search our weather history database for the weather conditions in past years. The results will help you decide how hot, cold, wet, or windy it might be!

Date:

Astronomy

Oct. 04, 2012 Rise Set
Actual Time 7:08 AM PDT 6:46 PM PDT
Civil Twilight 6:41 AM PDT 7:12 PM PDT
Nautical Twilight 6:11 AM PDT 7:43 PM PDT
Astronomical Twilight 5:40 AM PDT 8:14 PM PDT
Moon 9:30 PM PDT (10/4) 11:25 AM PDT (10/4)
Length of Visible Light 12h 31m
Length of Day
11h 38m
Waning Gibbous, 81% of the Moon is Illuminated
Oct 4
Waning Gibbous
Oct 8
Last Quarter
Oct 15
New
Oct 21
First Quarter
Oct 29
Full

Hourly Weather History & Observations

Time (PDT) Temp. Dew Point Humidity Pressure Visibility Wind Dir Wind Speed Gust Speed Precip Events Conditions
12:54 AM 57.9 °F 54.0 °F 87% 29.98 in 10.0 mi West 11.5 mph - N/A   Clear
1:39 AM 57.2 °F 53.6 °F 88% 30.01 in 10.0 mi West 9.2 mph - N/A   Mostly Cloudy
1:49 AM 57.2 °F 53.6 °F 88% 30.01 in 10.0 mi West 10.4 mph - N/A   Scattered Clouds
1:54 AM 57.9 °F 54.0 °F 87% 29.99 in 10.0 mi West 9.2 mph - N/A   Scattered Clouds
2:54 AM 59.0 °F 54.0 °F 83% 29.99 in 10.0 mi West 9.2 mph - N/A   Mostly Cloudy
3:54 AM 60.1 °F 54.0 °F 80% 29.99 in 10.0 mi West 10.4 mph - N/A   Overcast
4:54 AM 60.1 °F 54.0 °F 80% 30.00 in 10.0 mi West 11.5 mph - N/A   Overcast
5:54 AM 60.1 °F 53.1 °F 78% 30.01 in 10.0 mi West 13.8 mph - N/A   Overcast
6:54 AM 60.1 °F 53.1 °F 78% 30.03 in 10.0 mi West 11.5 mph - N/A   Overcast
7:54 AM 60.1 °F 53.1 °F 78% 30.04 in 10.0 mi West 10.4 mph - N/A   Overcast
8:54 AM 61.0 °F 53.1 °F 75% 30.06 in 10.0 mi West 11.5 mph - N/A   Overcast
9:54 AM 62.1 °F 53.1 °F 72% 30.08 in 10.0 mi West 9.2 mph - N/A   Overcast
10:54 AM 64.0 °F 53.1 °F 67% 30.09 in 10.0 mi West 9.2 mph - N/A   Overcast
11:54 AM 66.0 °F 53.1 °F 63% 30.09 in 10.0 mi WSW 10.4 mph - N/A   Overcast
12:38 PM 69.8 °F 55.4 °F 60% 30.11 in 10.0 mi SW 12.7 mph - N/A   Scattered Clouds
12:54 PM 69.1 °F 55.0 °F 61% 30.08 in 10.0 mi SSW 13.8 mph 18.4 mph N/A   Partly Cloudy
1:54 PM 69.1 °F 55.9 °F 63% 30.06 in 10.0 mi SSW 16.1 mph - N/A   Clear
2:54 PM 69.1 °F 55.0 °F 61% 30.05 in 10.0 mi SSW 19.6 mph - N/A   Clear
3:54 PM 68.0 °F 55.0 °F 63% 30.04 in 10.0 mi SSW 18.4 mph 24.2 mph N/A   Clear
4:54 PM 71.1 °F 52.0 °F 51% 30.04 in 10.0 mi West 17.3 mph - N/A   Clear
5:01 PM 69.8 °F 51.8 °F 53% 30.06 in 10.0 mi WSW 15.0 mph - N/A   Clear
5:54 PM 66.9 °F 52.0 °F 59% 30.04 in 10.0 mi West 16.1 mph - N/A   Clear
6:54 PM 61.0 °F 52.0 °F 72% 30.05 in 10.0 mi West 16.1 mph 24.2 mph N/A   Clear
7:54 PM 59.0 °F 52.0 °F 78% 30.06 in 10.0 mi West 15.0 mph - N/A   Clear
8:54 PM 57.9 °F 52.0 °F 81% 30.07 in 10.0 mi West 16.1 mph - N/A   Clear
9:54 PM 57.9 °F 52.0 °F 81% 30.09 in 10.0 mi West 15.0 mph - N/A   Clear
10:54 PM 57.0 °F 52.0 °F 83% 30.10 in 10.0 mi West 12.7 mph - N/A   Clear
11:54 PM 57.0 °F 52.0 °F 83% 30.10 in 10.0 mi West 12.7 mph - N/A   Clear